Regional Weather Roundup
Issued by NWS Bismarck, ND

Home | Current Version | Previous Version | Text Only | Print | Product List | Glossary On
Versions: 1 2 3 4 5 6 7 8 9 10 11 12 13 14 15 16 17 18 19 20 21 22 23 24 25 26 27 28 29 30 31 32 33 34 35 36 37 38 39 40 41 42 43 44 45 46 47 48 49 50
000
ASUS43 KBIS 032020
RWRBIS

NWR BROADCAST TEXT
NATIONAL WEATHER SERVICE BISMARCK ND
300 PM CDT SUN MAY 03 2015

NOTE: "FAIR" INDICATES FEW OR NO CLOUDS BELOW 12,000 FEET WITH NO
SIGNIFICANT WEATHER AND/OR OBSTRUCTIONS TO VISIBILITY.


CITY           SKY/WX    TMP DP  RH WIND       PRES   REMARKS
WILLISTON      LGT RAIN  64  22  20 NW21      30.03F
MINOT          SUNNY     63  24  22 NW24G30   29.98S
MINOT AFB      SUNNY     64  27  24 NW16G29   29.97S
BISMARCK       MOSUNNY   67  26  21 NW14      30.00R
DICKINSON      SUNNY     61  26  26 NW13G22   30.02R
GARRISON         N/A     63  26  24 W18G25    30.00R
HETTINGER ARPT PTSUNNY   61  28  28 NW8       30.03F
JAMESTOWN      MOSUNNY   67  20  16 NW16G29   29.94R
BEACH          CLOUDY    57  27  30 NW9       30.06S
CARRINGTON     FAIR      64  21  19 NW18G30   29.96R
CROSBY         FAIR      59  25  27 NW16G25   30.03R
HARVEY         FAIR      63  25  23 NW20G26   29.97R
HAZEN          FAIR      63  21  20 NW17G25   30.02S
LINTON         FAIR      64  27  24 N13G18    29.99R
MANDAN         FAIR      64  28  25 N13G21    30.01R
OAKES            N/A     63  28  27 N16       29.96R
STANLEY        FAIR      61  23  23 NW16G25   30.01F
TIOGA          FAIR      59  23  25 NW22      30.04F
WATFORD CITY   FAIR      61  21  21 NW17      30.01F
$$

CITY           SKY/WX    TMP DP  RH WIND       PRES   REMARKS
GRAND FORKS    MOSUNNY   69  27  20 NW17G26   29.89S
GRAND FORKS AF MOSUNNY   68  25  19 NW22G29   29.89S
DEVILS LAKE    SUNNY     63  27  25 NW18G26   29.93S
FARGO          CLOUDY    65  32  29 N12       29.92S
CANDO          FAIR      64  27  24 NW18G29   29.94S
CAVALIER       FAIR      66  28  24 NW21G26   29.89S
GRAFTON        FAIR      66  28  24 NW21G30   29.90S
GWINNER        CLEAR     64  30  27 NE15G21   29.96R
LANGDON        FAIR      64  28  25 NW16G31   29.92S HAZE
WALHALLA       FAIR      64  27  24 NW16G30   29.90S
$$

CITY           SKY/WX    TMP DP  RH WIND       PRES   REMARKS
ABERDEEN       PTSUNNY   68  31  25 NE18G25   29.94R
MOBRIDGE       PTSUNNY   65  29  25 N15       29.98R
BUFFALO          N/A     55  36  48 CALM      30.00S
RAPID CITY     MOSUNNY   68  37  32 NE21      30.00S
GLASGOW        SUNNY     59  23  25 VRB3      30.05F
SIDNEY         SUNNY     63  21  20 W13       30.04S
WOLF POINT     MOSUNNY   63  23  21 NW15      30.05S
GLENDIVE       CLOUDY    61  27  27 N10       30.06S
MILES CITY     CLOUDY    60  30  32 SE6       30.04F
BAKER          SUNNY     61  29  29 VRB6      30.05S
$$

CITY           SKY/WX    TMP DP  RH WIND       PRES   REMARKS
BILLINGS       PTSUNNY   61  30  31 E12G20    30.01F
GREAT FALLS    SUNNY     59  29  31 E6        29.98F
REGINA         PTSUNNY   57  30  35 W13G23    30.03S
ESTEVAN        MOSUNNY   61  28  29 NW17G24   30.02R
$$




USA.gov is the U.S. government's official web portal to all federal, state and local government web resources and services.